{"data":{"norad_id":44637,"intl_designator":"2019-070A","name":"TJS-4","alt_names":[],"object_type":"PAYLOAD","status":"ACTIVE","operator":null,"country":"PRC","launch_date":"2019-10-17","launch_site_code":"XICLF","launch_vehicle":null,"mission":null,"orbit_class":"UNKNOWN","rcs_meters":null,"size_class":null,"mass_kg":null,"dimensions":null,"purposes":["comms"],"wikipedia_slug":null,"has_3d_model":false,"image_url":null,"decayed_at":null,"tle_current":{"epoch":"2026-05-25T04:08:07.508832Z","epoch_age_seconds":67039,"freshness":"FRESH","line1":"1 44637U 19070A   26145.17230913 -.00000172  00000+0  00000+0 0  9994","line2":"2 44637   0.0459 268.2510 0005397 122.8580 357.2071  1.00272734 24308","mean_motion":1.00272734,"eccentricity":0.0005397,"inclination_deg":0.0459,"raan_deg":268.251,"arg_perigee_deg":122.858,"mean_anomaly_deg":357.2071,"bstar":0,"rev_number":2430,"period_min":1436.0833125384,"perigee_km":35763.57276188,"apogee_km":35809.085086398,"semimajor_km":42164.465924139,"source":"CELESTRAK","updated_at":"2026-05-25T13:38:14.089658Z"}}}